Saint Cloud, MN

5:18 AM CST on February 26, 2017 (GMT -0600)
Saint Cloud Regional

Weather History for KSTC - November, 2011

Change the Weather History Date:

Thursday, November 24, 2011

  Actual Average Record
Temperature  
Mean Temperature 42 °F 25 °F  
Max Temperature 53 °F 34 °F 56 °F (1990)
Min Temperature 31 °F 17 °F -17 °F (1898)
Degree Days  
Heating Degree Days 23 40  
Month to date heating degree days 725 790  
Since 1 July heating degree days 1405 1675  
Cooling Degree Days 0 0  
Month to date cooling degree days 0 0  
Year to date cooling degree days 634 465  
Moisture  
Dew Point 35 °F    
Average Humidity 78    
Maximum Humidity 96    
Minimum Humidity 59    
Precipitation  
Precipitation 0.00 in 0.04 in 1.07 in (2001)
Month to date precipitation 0.22 1.15  
Year to date precipitation 27.66 26.68  
Snow  
Snow 0.00 in 0.40 in 3.00 in (1930)
Month to date snowfall 3.8 6.3  
Since 1 July snowfall 3.8 7.1  
Since 1 September snowfall 3.8 7.1  
Snow Depth 0.00 in    
Sea Level Pressure  
Sea Level Pressure 29.81 in    
Wind  
Wind Speed 7 mph (SSE)    
Max Wind Speed 18 mph    
Max Gust Speed 21 mph    
Visibility 8 miles    
Events      
T = Trace of Precipitation, MM = Missing Value Source: NWS Daily Summary

Daily Weather History Graph

Daily Weather History Graph

Search for Another Location

Airport or City:

Trip Planner

Search our weather history database for the weather conditions in past years. The results will help you decide how hot, cold, wet, or windy it might be!

Date:

Astronomy

Nov. 24, 2011 Rise Set
Actual Time 7:27 AM CST 4:38 PM CST
Civil Twilight 6:54 AM CST 5:11 PM CST
Nautical Twilight 6:17 AM CST 5:47 PM CST
Astronomical Twilight 5:42 AM CST 6:23 PM CST
Moon 6:47 AM CST (11/24) 4:07 PM CST (11/24)
Length of Visible Light 10h 16m
Length of Day
9h 11m
Waning Crescent, 0% of the Moon is Illuminated
Nov 24
Waning Crescent
Nov 25
New
Dec 2
First Quarter
Dec 10
Full
Dec 17
Last Quarter

Hourly Weather History & Observations

Time (CST) Temp. Windchill Dew Point Humidity Pressure Visibility Wind Dir Wind Speed Gust Speed Precip Events Conditions
12:53 AM 35.1 °F 27.9 °F 33.1 °F 92% 29.97 in 5.0 mi South 9.2 mph - N/A   Clear
1:53 AM 35.1 °F 26.4 °F 33.1 °F 92% 29.95 in 5.0 mi South 12.7 mph - N/A   Clear
2:53 AM 34.0 °F 26.0 °F 32.0 °F 92% 29.94 in 5.0 mi South 10.4 mph - N/A   Clear
3:53 AM 34.0 °F 26.6 °F 32.0 °F 92% 29.92 in 6.0 mi SSE 9.2 mph - N/A   Clear
4:53 AM 33.1 °F 26.9 °F 30.9 °F 92% 29.90 in 5.0 mi SSE 6.9 mph - N/A   Clear
5:53 AM 32.0 °F 24.8 °F 30.0 °F 92% 29.89 in 5.0 mi SSE 8.1 mph - N/A   Clear
6:53 AM 30.9 °F 23.5 °F 28.9 °F 92% 29.88 in 5.0 mi SSE 8.1 mph - N/A   Clear
7:53 AM 34.0 °F 27.2 °F 30.9 °F 89% 29.88 in 4.0 mi SSE 8.1 mph - N/A   Clear
8:53 AM 36.0 °F 30.3 °F 33.1 °F 89% 29.87 in 5.0 mi South 6.9 mph - N/A   Clear
9:53 AM 41.0 °F 35.2 °F 34.0 °F 76% 29.86 in 8.0 mi South 9.2 mph - N/A   Clear
10:53 AM 46.0 °F 39.9 °F 36.0 °F 68% 29.83 in 10.0 mi South 13.8 mph - N/A   Clear
11:53 AM 46.9 °F - 36.0 °F 66% 29.81 in 10.0 mi South 10.4 mph - N/A   Clear
12:53 PM 50.0 °F - 37.0 °F 61% 29.79 in 10.0 mi South 9.2 mph - N/A   Clear
1:53 PM 51.1 °F - 39.0 °F 63% 29.78 in 10.0 mi South 9.2 mph - N/A   Clear
2:53 PM 53.1 °F - 39.9 °F 61% 29.76 in 10.0 mi South 12.7 mph - N/A   Clear
3:53 PM 52.0 °F - 39.9 °F 63% 29.76 in 10.0 mi SSE 4.6 mph - N/A   Clear
4:53 PM 48.0 °F - 39.9 °F 74% 29.77 in 10.0 mi SE 3.5 mph - N/A   Clear
5:53 PM 46.0 °F 42.5 °F 39.0 °F 76% 29.75 in 10.0 mi ESE 6.9 mph - N/A   Clear
6:53 PM 44.1 °F 40.8 °F 37.9 °F 79% 29.74 in 10.0 mi SE 5.8 mph - N/A   Clear
7:53 PM 42.1 °F 39.2 °F 37.0 °F 82% 29.73 in 10.0 mi South 4.6 mph - N/A   Clear
8:53 PM 42.1 °F 37.1 °F 37.0 °F 82% 29.71 in 10.0 mi South 8.1 mph - N/A   Clear
9:53 PM 41.0 °F - 37.4 °F 87% 29.65 in 10.0 mi Calm Calm - N/A   Clear
10:53 PM 35.6 °F - 33.8 °F 93% 29.65 in 7.0 mi Calm Calm - N/A   Clear
11:53 PM 33.1 °F - 30.9 °F 92% 29.69 in 7.0 mi Calm Calm - N/A   Clear